RH
27 34 31 30 31 33 32 27 24 23 22 22 24 23 21 24 24 33 36 43 56 61 35 35 33 15 20 22 20 20 21 44 80 96 98 98 100 98 98 98 100 94 87 77
34 43 37 37 37 39 36 32 28 26 23 27 24 22 20 20 21 25 29 34 46 61 44 33 36 29 17 20 18 20 22 36 78 79 92 97 99 100 100 100 99 86 81 67
70 42 47 42 43 40 39 38 33 29 26 26 28 25 22 21 21 23 26 30 32 48 65 31 34 38 20 18 16 18 20 21 66 89 87 99 98 100 99 100 99 97 97 95
92 58 48 52 47 41 42 37 34 32 30 28 25 22 21 19 18 24 28 32 34 40 56 34 31 36 34 19 16 15 21 21 27 55 68 87 88 94 97 99 100 100 100 100
74 80 56 40 43 42 42 38 34 32 34 32 29 26 24 22 19 21 26 25 28 41 51 35 30 36 41 19 17 13 22 22 21 23 30 62 88 95 100 100 100 100 100 100
61 77 71 46 39 47 43 37 36 33 34 33 31 30 26 21 23 26 25 24 25 33 50 51 29 36 38 22 18 13 19 24 26 25 24 28 47 75 87 88 100 100 100 100
63 68 57 52 44 36 40 38 37 39 37 37 29 30 29 24 27 28 28 28 26 31 47 61 28 28 34 23 17 14 14 20 23 27 30 28 26 34 61 91 90 98 98 98
34 49 60 51 51 45 42 39 35 46 45 33 30 27 26 27 28 29 30 30 28 38 48 50 33 25 32 30 16 15 14 20 22 25 29 32 35 28 26 36 68 90 88 96
36 47 49 58 56 61 54 40 34 33 46 44 37 31 31 32 33 31 32 35 32 34 37 50 41 24 31 33 15 17 16 18 22 25 28 30 32 36 36 27 29 37 69 70
45 38 36 54 63 54 52 52 40 39 52 52 35 29 37 32 33 32 30 32 33 32 38 45 37 26 30 34 32 18 20 20 22 24 25 28 32 35 36 40 40 40 35 34
46 52 54 46 68 52 47 44 52 44 40 45 48 36 32 33 33 35 35 37 37 40 44 43 38 33 30 34 34 26 23 25 26 27 28 28 29 30 32 36 39 42 43 43
49 69 52 49 44 54 51 40 50 47 47 44 40 40 37 38 45 46 46 45 40 43 40 44 40 36 34 35 34 34 22 24 26 30 35 39 44 45 41 42 36 35 38 45
81 57 52 61 57 49 48 48 48 50 51 61 90 46 38 46 41 42 42 44 44 44 40 40 45 36 34 34 34 34 35 25 27 33 39 43 46 50 53 53 49 47 47 44
75 85 55 40 56 58 44 50 60 51 50 45 45 44 44 49 43 42 42 45 40 44 45 42 42 47 36 35 36 35 37 37 37 38 39 42 46 50 53 58 61 54 54 54
83 94 87 74 79 64 61 57 52 51 50 50 55 52 45 44 46 44 45 48 44 32 34 43 46 45 48 41 35 35 38 40 41 42 43 38 42 45 44 46 50 61 65 58
72 57 63 80 61 59 58 59 56 50 47 46 43 42 42 42 47 43 42 50 55 52 51 50 47 49 49 51 46 40 38 36 35 41 35 32 33 30 24 26 26 35 54 65
82 66 50 57 47 58 59 53 50 51 51 48 46 52 48 50 45 54 58 64 47 42 42 39 40 40 45 57 42 39 39 40 38 36 34 32 32 33 30 22 22 23 24 35
83 73 64 60 65 59 40 42 42 43 44 44 41 46 53 58 58 58 56 82 46 37 43 42 44 42 42 40 40 40 39 37 38 37 33 33 33 33 31 24 21 25 30 31
85 75 72 70 51 42 37 35 35 36 34 45 48 54 62 64 67 54 69 87 63 63 67 53 42 43 42 41 41 40 40 38 39 36 37 36 34 35 34 28 30 29 31 35
84 82 73 67 59 48 36 55 65 50 39 62 63 64 66 66 59 55 76 80 55 80 72 64 61 50 41 42 42 42 42 40 40 36 36 40 38 38 38 32 33 34 36 39
93 97 82 73 64 48 48 52 61 51 64 87 78 76 80 80 78 80 75 86 84 84 65 50 61 69 64 50 42 41 43 41 40 37 38 41 42 40 47 52 47 37 36 38
86 93 91 86 92 65 56 59 63 76 98 98 94 92 50 40 54 84 83 88 93 54 49 44 45 51 62 64 54 44 42 44 40 37 35 37 39 42 45 51 44 42 43 41
85 79 71 63 58 72 79 91 98 97 92 88 66 50 43 41 45 42 86 86 40 47 44 57 66 65 62 56 66 52 45 43 44 44 39 40 37 35 35 45 47 52 59 57
71 83 96 88 73 73 89 73 86 68 67 60 55 43 38 40 48 48 48 51 56 53 56 55 65 76 83 80 72 66 56 51 50 45 42 44 48 47 48 54 56 54 62 79
67 78 62 57 63 59 63 80 76 51 40 41 36 40 45 50 64 61 51 48 54 61 66 68 69 72 92 88 86 98 89 79 74 64 57 59 56 64 65 74 77 91 84 97
69 69 71 71 84 75 93 83 67 41 36 44 47 57 58 56 64 65 58 48 46 43 45 55 54 70 70 98 88 99 100 100 100 100 99 95 87 96 71 90 98 94 94 100
Wind_Speed
24 30 39 34 37 33 25 23 20 17 15 18 19 22 22 19 18 16 16 15 16 14 12 12 10 11 13 11 9 11 12 9 21 24 21 23 22 17 15 24 29 29 36 46
23 41 34 30 30 29 30 29 28 21 17 14 19 22 20 22 23 22 19 18 17 17 14 12 12 11 12 12 9 8 9 6 16 22 23 18 21 20 21 22 32 35 37 39
29 38 31 31 31 31 30 31 28 23 18 18 17 26 25 25 25 24 22 20 20 20 19 15 14 13 12 11 10 7 6 2 7 18 18 26 20 25 29 25 29 33 42 47
27 26 32 27 37 29 31 26 24 23 20 24 19 22 20 14 17 18 20 19 19 21 21 16 15 14 13 12 9 7 4 1 4 8 13 20 18 26 25 27 25 33 39 37
22 18 28 34 27 30 33 21 24 22 22 25 27 18 20 19 21 17 16 18 21 20 20 15 14 14 15 14 11 9 6 3 3 5 6 11 20 24 26 29 27 37 41 34
21 18 21 22 28 25 23 23 17 21 21 22 28 25 19 20 16 10 9 11 15 18 20 18 12 16 17 15 14 12 10 8 6 5 5 6 10 17 29 28 30 36 40 43
23 33 26 18 13 21 25 22 14 14 17 15 17 20 27 9 8 7 9 11 13 15 18 21 21 18 18 14 14 15 13 11 8 6 6 5 6 8 15 27 29 28 41 38
26 26 35 23 24 20 23 26 15 13 10 15 24 11 21 17 19 10 6 8 15 13 13 17 22 21 19 16 16 18 17 15 12 10 9 7 6 6 7 10 20 33 33 36
17 29 19 26 26 20 21 32 29 27 14 7 12 14 8 11 10 10 4 6 11 7 9 14 20 24 22 20 19 19 19 19 17 14 13 11 9 8 7 8 7 12 24 28
10 15 20 13 23 26 27 15 22 25 11 13 15 19 9 11 11 10 7 8 10 10 10 11 16 23 22 23 23 22 23 22 20 18 16 15 14 13 13 13 11 10 11 15
18 11 6 17 23 26 25 29 23 25 23 5 7 7 9 12 8 7 5 4 4 5 6 7 11 19 24 27 28 26 26 26 24 23 22 20 19 17 16 15 14 14 15 16
14 10 14 20 19 23 24 27 24 19 17 21 21 15 5 8 3 4 6 3 4 7 5 8 9 15 19 22 31 30 29 28 26 24 21 20 20 20 20 18 19 19 19 20
2 12 13 14 10 15 20 25 27 27 24 19 4 3 13 14 8 7 8 10 6 9 9 8 13 11 17 18 25 31 29 29 29 28 26 26 25 25 23 23 25 26 25 26
8 9 15 12 6 8 18 14 16 14 17 18 22 19 16 14 12 11 14 14 22 16 15 14 12 15 15 17 18 26 31 29 30 31 30 31 30 30 29 30 31 32 32 32
7 8 9 11 5 2 5 11 14 17 19 18 17 16 13 14 13 14 18 17 18 22 25 20 14 14 15 18 17 20 25 31 34 35 31 29 30 30 32 34 34 35 38 40
10 12 11 13 9 8 11 13 15 17 16 17 16 19 18 14 9 8 11 13 16 16 16 19 25 13 13 16 21 19 19 22 29 34 32 30 30 27 28 29 31 33 36 40
9 10 12 15 11 11 14 19 20 19 18 16 17 12 7 8 11 12 12 14 18 23 27 29 31 32 19 14 22 28 26 26 26 29 33 32 32 30 26 28 31 33 32 33
12 11 12 12 5 10 11 6 6 15 18 17 15 12 10 11 12 15 12 12 19 21 23 32 34 33 30 28 27 26 28 32 30 31 32 34 37 36 33 32 30 28 25 24
21 16 12 9 15 17 19 16 12 11 10 9 8 5 5 8 11 11 10 15 20 24 24 23 34 40 37 38 32 33 31 31 33 36 37 38 39 41 40 38 35 35 33 31
20 22 18 8 14 10 11 6 6 8 12 6 4 2 4 8 7 9 15 19 23 21 26 31 22 24 45 45 42 35 35 38 37 35 38 39 39 42 45 45 42 42 40 38
22 22 25 23 16 12 8 4 3 14 7 4 1 3 6 8 11 16 18 18 20 20 27 33 33 29 24 31 44 42 38 35 38 36 37 43 43 44 41 40 46 51 50 45
20 16 17 19 11 19 10 9 9 7 4 3 4 7 14 19 19 17 18 18 19 26 28 31 34 33 37 30 29 38 43 43 38 36 35 37 40 50 51 50 56 52 53 50
14 16 16 17 16 6 7 7 4 7 10 13 18 21 25 27 24 23 17 22 27 29 31 33 33 34 35 37 32 31 39 43 45 41 39 36 39 41 48 44 44 45 48 51
15 17 13 11 13 15 10 3 10 17 17 23 28 31 29 27 23 23 25 29 28 30 30 32 36 37 35 35 34 30 30 35 36 43 40 37 30 30 37 44 43 49 42 41
15 10 15 17 13 11 7 11 21 20 20 27 29 30 27 25 24 24 26 25 27 30 32 34 34 34 34 31 25 18 23 23 31 38 39 35 41 41 38 34 38 35 42 43
12 12 13 12 14 15 11 18 24 25 25 27 27 29 29 29 29 30 33 32 33 33 34 33 35 35 30 26 26 18 12 15 14 17 21 26 31 33 43 45 42 40 44 39
Wind_Direction
233 227 228 227 230 235 244 249 248 254 253 234 246 250 252 251 247 256 249 247 247 236 259 276 287 286 281 283 296 310 316 306 201 205 200 207 201 194 200 205 208 199 189 187
223 234 232 233 235 237 236 243 250 255 253 247 252 257 259 253 251 246 255 254 248 235 248 272 270 275 276 279 288 305 317 324 204 198 208 220 205 208 217 212 217 197 193 196
215 233 235 229 235 232 234 236 244 249 257 251 266 268 262 258 253 248 248 247 248 237 232 261 265 262 263 269 277 292 313 325 204 196 211 193 205 208 216 215 217 219 205 204
225 231 236 234 232 228 238 236 246 251 250 257 260 273 259 271 244 244 244 246 243 233 230 249 255 254 255 255 258 258 277 267 176 204 210 218 224 223 226 227 221 226 223 221
242 240 234 236 233 229 239 245 244 246 247 256 253 258 267 261 247 252 247 247 238 225 225 243 244 238 246 249 244 238 234 208 170 185 183 209 224 226 226 219 226 231 224 222
233 231 239 242 237 231 237 236 244 239 239 245 247 248 263 248 234 233 236 239 229 228 223 223 238 235 248 246 242 230 220 217 187 175 186 200 232 220 224 228 221 229 225 226
238 241 245 245 242 222 220 212 213 219 224 237 238 233 236 234 204 223 253 237 224 221 228 221 238 244 246 248 234 226 222 218 212 194 180 182 214 241 231 229 230 224 230 229
232 238 242 233 229 219 215 208 206 215 223 230 218 232 243 234 247 229 229 243 213 220 228 229 239 241 240 238 226 222 219 216 214 209 208 201 189 200 229 236 236 232 231 233
243 239 249 233 221 220 216 229 228 265 262 258 196 226 233 195 215 210 247 215 194 228 248 258 238 235 237 232 227 222 221 219 214 215 216 217 216 207 205 211 219 222 228 231
253 264 242 227 213 224 228 221 230 231 249 244 258 252 212 192 199 208 249 222 237 247 267 260 239 232 237 237 232 223 221 223 221 219 225 226 220 220 218 216 215 217 221 226
227 255 235 207 212 217 215 229 241 236 226 233 245 253 239 201 211 207 166 135 211 244 285 284 255 241 243 244 239 227 221 222 225 229 230 234 241 240 238 237 235 231 233 235
210 248 246 218 234 220 226 222 224 242 231 232 243 253 180 178 214 244 243 242 298 261 295 308 284 248 258 253 236 232 224 227 230 232 236 236 237 243 245 251 254 248 247 239
324 227 243 204 201 213 225 220 223 234 247 232 230 205 228 235 261 291 303 289 261 263 279 305 309 284 250 256 246 236 231 233 234 234 235 237 241 245 252 255 249 249 248 247
289 259 235 244 287 212 219 216 220 227 238 244 249 261 265 263 264 280 287 298 256 264 290 301 296 287 278 254 250 240 234 235 238 237 242 247 251 258 260 257 253 249 248 248
252 276 291 245 242 295 232 229 234 236 240 248 246 244 260 267 274 271 281 285 287 267 270 278 284 286 272 269 249 242 239 241 242 242 245 249 255 255 254 254 254 251 248 250
241 250 269 279 259 258 263 250 245 244 248 253 256 262 269 271 248 279 286 283 275 265 265 259 266 267 283 255 265 255 251 254 248 246 239 247 252 253 255 252 252 252 251 250
257 242 245 267 262 271 268 253 247 245 243 246 247 250 264 246 277 286 300 298 279 274 259 253 246 245 247 264 252 261 262 258 253 243 240 246 244 249 256 252 250 250 251 254
232 233 235 258 252 243 250 239 237 236 242 244 249 253 268 273 277 281 291 293 280 282 273 254 252 253 251 250 249 250 255 260 255 249 243 247 248 249 248 244 242 241 246 251
224 217 227 231 234 259 270 279 253 242 247 214 216 230 262 289 304 314 218 270 279 296 294 278 253 249 250 250 251 252 258 256 258 257 255 254 249 250 249 243 245 247 249 253
211 214 222 220 243 250 258 239 212 203 194 176 179 242 309 327 311 264 295 296 284 309 300 292 287 268 252 251 252 254 256 259 264 267 258 253 249 250 249 247 246 247 248 249
195 203 216 224 239 244 234 183 248 211 164 125 102 293 304 308 294 295 304 311 312 310 302 294 294 291 290 268 256 257 259 257 257 265 261 253 251 251 251 256 254 252 250 252
192 194 207 222 236 240 261 244 234 212 215 301 293 311 306 301 303 312 310 303 309 307 301 302 297 297 294 289 277 258 254 254 254 254 254 256 261 255 252 254 249 251 248 248
212 205 202 206 229 214 207 193 235 263 258 272 272 283 303 303 296 300 299 294 302 300 305 309 310 307 296 293 287 279 257 256 259 262 257 256 257 255 254 247 247 250 245 245
232 228 233 203 217 223 191 269 277 269 265 274 278 288 289 293 301 303 302 300 303 300 302 298 304 311 296 288 287 284 264 251 253 256 259 261 272 271 260 249 243 249 257 254
242 237 247 254 260 252 252 268 264 268 281 277 275 279 279 283 286 296 300 303 300 300 304 299 299 308 295 276 274 290 283 265 260 258 254 249 256 265 267 262 251 248 256 261
233 247 237 238 230 220 231 253 265 287 284 285 283 277 278 279 279 285 295 294 297 301 297 304 298 298 285 296 279 261 252 248 242 246 251 251 253 251 251 257 257 259 263 244